Retour au catalogue

DSAT

ActifScienceSSO
NORAD 42794·PAYLOAD·🇮🇹 Italy

Lancé Jun 23, 2017 depuis Satish Dhawan Space Centre

Loading…

Prochains Passages (prochaines 24 heures)

TLE

FraisSource: Space-Track

Époque: Sep 13, 2026, 21:52 UTC

1 42794U 17036AF  26256.91148895  .00004080  00000-0  18787-3 0  9995
2 42794  97.5663 235.7049 0078736 212.6782 146.9568 15.18129701504310

Suivez DSAT en temps réel avec AllMySat

Download on the App Store